Weather History for Cleveland, TX

Change the Weather History Date:

Friday, March 15, 2013

  Actual Average (KCXO) Record (KCXO)
Temperature  
Mean Temperature 60 °F -  
Max Temperature 81 °F 68 °F 84 °F (2008)
Min Temperature 40 °F 47 °F 30 °F (1999)
Degree Days  
Heating Degree Days 4    
Growing Degree Days 10 (Base 50)    
Moisture  
Dew Point 47 °F    
Average Humidity 67    
Maximum Humidity 94    
Minimum Humidity 26    
Precipitation  
Precipitation 0.00 in - - ()
Sea Level Pressure  
Sea Level Pressure 30.18 in    
Wind  
Wind Speed 3 mph (South)    
Max Wind Speed 16 mph    
Max Gust Speed 25 mph    
Averages and records for this station are not official NWS values.
T = Trace of Precipitation, MM = Missing Value Source: NWS Daily Summary

Daily Weather History Graph

Daily Weather History Graph

Search for Another Location

Airport:

Trip Planner

Search our weather history database for the weather conditions in past years. The results will help you decide how hot, cold, wet, or windy it might be!

Date:

Astronomy

Mar. 15, 2013 Rise Set
Actual Time 7:29 AM CDT 7:28 PM CDT
Civil Twilight 7:05 AM CDT 7:52 PM CDT
Nautical Twilight 6:37 AM CDT 8:20 PM CDT
Astronomical Twilight 6:09 AM CDT 8:48 PM CDT
Moon 9:38 AM CDT (3/15) 11:23 PM CDT (3/15)
Length of Visible Light 12h 46m
Length of Day
11h 58m
Waxing Crescent, 15% of the Moon is Illuminated
Mar 15
Waxing Crescent
Mar 19
First Quarter
Mar 27
Full
Apr 2
Last Quarter
Apr 10
New

Hourly Weather History & Observations

Time (CDT) Temp. Dew Point Humidity Pressure Visibility Wind Dir Wind Speed Gust Speed Precip Events Conditions
12:15 AM 48.9 °F 45.0 °F 86% 30.30 in - Calm Calm - N/A   Unknown
12:35 AM 48.7 °F 44.4 °F 85% 30.30 in - Calm Calm - N/A   Clear
12:55 AM 48.4 °F 43.7 °F 84% 30.29 in - Calm Calm - N/A   Unknown
1:15 AM 45.9 °F 41.9 °F 86% 30.28 in - Calm Calm - N/A   Unknown
1:35 AM 47.1 °F 43.7 °F 88% 30.28 in - Calm Calm - N/A   Unknown
1:55 AM 48.0 °F 44.8 °F 89% 30.28 in - Calm Calm - N/A   Unknown
2:15 AM 45.5 °F 41.0 °F 84% 30.27 in - Calm Calm - N/A   Unknown
2:35 AM 46.8 °F 44.1 °F 90% 30.27 in - Calm Calm - N/A   Unknown
2:55 AM 46.9 °F 44.8 °F 92% 30.28 in - Calm Calm - N/A   Unknown
3:15 AM 44.1 °F 42.1 °F 93% 30.27 in - Calm Calm - N/A   Unknown
3:35 AM 43.3 °F 40.1 °F 88% 30.26 in - Calm Calm - N/A   Unknown
3:55 AM 43.7 °F 41.4 °F 91% 30.24 in - Calm Calm - N/A   Unknown
4:15 AM 44.4 °F 42.6 °F 93% 30.24 in - Calm Calm - N/A   Unknown
4:35 AM 42.4 °F 40.6 °F 93% 30.24 in - Calm Calm - N/A   Unknown
4:55 AM 41.9 °F 39.6 °F 91% 30.24 in - Calm Calm - N/A   Unknown
5:15 AM 42.1 °F 40.1 °F 93% 30.24 in - Calm Calm - N/A   Unknown
5:35 AM 41.7 °F 39.7 °F 93% 30.24 in - Calm Calm - N/A   Unknown
5:55 AM 40.8 °F 39.0 °F 93% 30.24 in - Calm Calm - N/A   Unknown
6:15 AM 42.3 °F 40.5 °F 93% 30.24 in - Calm Calm - N/A   Unknown
6:35 AM 41.2 °F 39.4 °F 93% 30.24 in - Calm Calm - N/A   Unknown
6:55 AM 41.5 °F 39.7 °F 93% 30.24 in - Calm Calm - N/A   Unknown
7:15 AM 40.8 °F 39.2 °F 94% 30.24 in - Calm Calm - N/A   Unknown
7:35 AM 41.0 °F 37.9 °F 89% 30.25 in - Calm Calm - N/A   Unknown
7:55 AM 41.0 °F 38.1 °F 89% 30.24 in - Calm Calm - N/A   Unknown
8:15 AM 43.0 °F 40.5 °F 91% 30.25 in - Calm Calm - N/A   Unknown
8:35 AM 46.0 °F 43.3 °F 90% 30.25 in - Calm Calm - N/A   Unknown
8:55 AM 50.5 °F 47.5 °F 89% 30.25 in - Calm Calm - N/A   Unknown
9:15 AM 54.0 °F 49.8 °F 86% 30.26 in - Calm Calm - N/A   Unknown
9:35 AM 59.0 °F 52.5 °F 79% 30.26 in - SSW 5.8 mph - N/A   Clear
10:55 AM 69.8 °F 54.3 °F 58% 30.26 in - SW 9.2 mph - N/A   Clear
11:15 AM 70.3 °F 53.1 °F 54% 30.25 in - SSW 6.9 mph 16.1 mph N/A   Clear
11:35 AM 71.8 °F 51.1 °F 48% 30.25 in - SSW 10.4 mph 18.4 mph N/A   Clear
11:55 AM 73.2 °F 50.9 °F 45% 30.24 in - SW 9.2 mph - N/A   Clear
12:15 PM 74.1 °F 50.7 °F 44% 30.23 in - SSW 6.9 mph - N/A   Clear
12:35 PM 76.1 °F 48.7 °F 38% 30.22 in - SSW 9.2 mph 16.1 mph N/A   Clear
12:55 PM 77.0 °F 46.9 °F 34% 30.21 in - South 9.2 mph - N/A   Clear
1:15 PM 78.4 °F 45.1 °F 31% 30.20 in - SSW 9.2 mph - N/A   Clear
1:35 PM 77.9 °F 45.5 °F 32% 30.19 in - SSW 4.6 mph - N/A   Clear
1:55 PM 78.6 °F 45.5 °F 31% 30.17 in - SSW 5.8 mph 10.4 mph N/A   Clear
2:15 PM 79.2 °F 45.3 °F 30% 30.16 in - South 15.0 mph - N/A   Clear
2:35 PM 80.1 °F 44.6 °F 29% 30.14 in - South 12.7 mph 18.4 mph N/A   Clear
2:55 PM 80.4 °F 44.8 °F 28% 30.13 in - South 9.2 mph 20.7 mph N/A   Clear
3:15 PM 80.8 °F 43.9 °F 27% 30.12 in - SSW 10.4 mph 25.3 mph N/A   Clear
3:35 PM 80.6 °F 42.6 °F 26% 30.10 in - South 16.1 mph 19.6 mph N/A   Clear
3:55 PM 81.1 °F 45.3 °F 28% 30.10 in - SSW 15.0 mph 21.9 mph N/A   Clear
4:15 PM 80.6 °F 43.5 °F 27% 30.09 in - South 13.8 mph 20.7 mph N/A   Clear
4:35 PM 81.3 °F 45.0 °F 28% 30.08 in - SSW 8.1 mph - N/A   Scattered Clouds
4:55 PM 79.3 °F 51.8 °F 38% 30.07 in - SSE 5.8 mph 19.6 mph N/A   Scattered Clouds
5:15 PM 79.0 °F 52.7 °F 40% 30.07 in - SE 6.9 mph 16.1 mph N/A   Scattered Clouds
5:35 PM 78.6 °F 51.4 °F 39% 30.07 in - South 15.0 mph 19.6 mph N/A   Clear
5:55 PM 77.4 °F 50.9 °F 39% 30.07 in - South 13.8 mph 20.7 mph N/A   Clear
6:15 PM 76.3 °F 52.3 °F 43% 30.07 in - South 12.7 mph 19.6 mph N/A   Clear
6:35 PM 75.2 °F 52.0 °F 44% 30.06 in - SSE 11.5 mph 18.4 mph N/A   Clear
6:55 PM 73.2 °F 53.2 °F 49% 30.07 in - South 10.4 mph 18.4 mph N/A   Clear
7:15 PM 70.9 °F 54.7 °F 56% 30.07 in - South 8.1 mph - N/A   Clear
7:35 PM 69.1 °F 54.5 °F 60% 30.08 in - South 9.2 mph - N/A   Clear
7:55 PM 67.6 °F 54.1 °F 62% 30.08 in - South 6.9 mph - N/A   Clear
8:15 PM 66.6 °F 53.8 °F 63% 30.09 in - South 10.4 mph - N/A   Clear
8:35 PM 65.7 °F 53.8 °F 65% 30.08 in - South 8.1 mph - N/A   Clear
8:55 PM 64.9 °F 54.1 °F 68% 30.09 in - South 8.1 mph - N/A   Clear
9:15 PM 64.0 °F 54.5 °F 71% 30.09 in - South 9.2 mph - N/A   Clear
9:35 PM 62.8 °F 54.7 °F 75% 30.10 in - South 6.9 mph - N/A   Clear
9:55 PM 62.1 °F 54.9 °F 77% 30.10 in - South 9.2 mph - N/A   Clear
10:15 PM 61.7 °F 54.9 °F 78% 30.10 in - South 9.2 mph - N/A   Clear
10:35 PM 61.5 °F 55.2 °F 80% 30.10 in - South 8.1 mph - N/A   Clear
10:55 PM 60.8 °F 55.2 °F 82% 30.09 in - South 9.2 mph - N/A   Clear
11:15 PM 61.0 °F 55.4 °F 82% 30.09 in - South 8.1 mph - N/A   Clear
11:35 PM 59.9 °F 55.2 °F 84% 30.08 in - South 8.1 mph - N/A   Clear
11:55 PM 60.1 °F 55.4 °F 85% 30.07 in - South 5.8 mph - N/A   Unknown